Wind_Speed
24 24 23 25 27 27 25 23 22 21 21 21 22 22 22 22 23 23 24 25 25 24 22 22 22 23 23 23 22 21 20 18 17 16 16 16 17 17 17 17 17 15 15 15 15 16 17 17 17 17 17 17 17 16 16 16 15 13 11 10 8 6 5 4 3 3 3 4 4 5 5 6 7 7 7 7 7 6 6 6 5 5 5 4 4
27 26 25 29 27 25 23 22 21 22 23 24 24 23 24 24 23 23 24 24 24 24 23 22 21 22 22 22 22 21 21 20 18 17 16 16 16 17 17 17 17 16 14 13 14 15 17 17 17 17 17 17 17 17 16 16 15 14 12 11 10 8 6 4 3 3 3 3 4 5 5 6 6 7 7 7 7 7 6 6 5 5 5 5 4
26 26 26 29 26 22 20 20 22 24 26 26 25 24 24 24 23 23 23 23 23 23 22 21 21 21 21 21 21 21 20 20 19 18 17 17 16 17 17 18 18 17 15 14 13 14 16 17 16 16 16 16 16 16 16 15 15 14 13 12 11 9 7 5 3 2 3 3 4 4 5 6 6 6 7 7 7 7 7 6 6 5 5 4 3
26 27 28 26 23 22 21 23 24 25 27 27 25 24 23 23 23 23 22 22 22 23 22 22 21 21 21 21 21 20 20 20 20 19 19 18 17 17 17 18 18 18 17 15 14 14 15 16 16 16 15 15 15 16 15 15 14 14 14 13 12 10 8 6 3 2 3 3 4 4 5 5 6 6 6 6 7 7 7 7 6 5 5 4 3
26 26 25 22 20 19 19 22 23 24 25 26 24 23 22 23 24 24 24 24 24 24 24 24 23 23 22 22 21 21 21 21 21 20 20 19 19 18 18 18 18 17 17 17 15 14 14 16 16 16 16 15 15 15 15 15 14 14 14 13 12 11 9 7 4 2 3 3 4 4 4 4 5 5 6 6 6 6 6 7 6 5 5 4 4
28 27 23 19 18 18 17 18 19 22 23 23 22 22 22 23 23 24 25 26 26 26 26 26 25 24 24 23 23 23 22 22 22 21 21 21 20 19 19 19 18 17 17 17 16 15 14 15 16 17 16 16 16 15 15 15 14 14 14 13 13 11 10 8 5 3 2 3 4 4 4 4 4 5 5 5 6 6 6 6 6 6 5 4 4
31 28 25 20 15 14 14 13 15 20 20 21 22 22 23 24 24 24 25 26 27 27 27 26 26 25 25 25 24 24 24 23 23 23 23 22 22 21 20 20 19 18 18 18 17 17 15 15 16 16 16 16 16 16 15 15 14 14 14 13 13 11 10 9 6 4 3 3 4 4 4 4 4 4 5 5 5 6 6 6 6 6 5 5 4
30 24 20 18 14 11 10 9 11 17 19 20 22 24 24 25 25 24 24 25 25 25 25 25 25 26 26 25 25 25 25 25 24 24 24 23 23 22 22 21 20 20 19 18 18 19 17 16 16 17 18 17 17 16 15 14 14 14 13 13 12 11 11 9 7 5 4 3 3 4 4 4 4 4 5 5 5 5 6 6 6 6 5 4 4
25 19 13 11 11 11 10 9 10 12 15 19 22 24 24 24 24 23 23 23 23 23 24 24 24 25 25 26 26 26 25 26 25 25 24 24 24 23 22 22 21 21 20 19 19 19 18 16 16 18 19 19 18 17 15 15 14 13 13 12 12 11 11 10 7 6 5 4 3 3 4 4 4 4 4 5 5 5 5 5 6 6 5 5 4
19 13 11 9 9 9 9 11 13 14 14 16 17 21 23 23 21 21 21 22 22 22 23 23 23 24 25 25 26 26 26 26 26 26 25 25 24 23 22 22 21 21 21 21 20 18 17 17 16 17 18 19 18 17 16 15 14 13 13 12 11 11 11 10 8 7 6 5 4 3 4 4 4 4 4 5 5 5 5 5 5 5 5 4 4
13 9 9 10 10 10 8 8 11 13 14 13 12 15 19 21 20 20 19 20 20 21 22 22 22 23 24 26 26 26 26 26 26 26 26 25 24 24 23 22 22 22 22 21 21 19 18 18 18 17 18 19 19 17 16 15 14 13 13 12 11 10 11 10 9 8 7 6 4 3 3 4 4 3 3 4 5 5 4 4 5 5 4 4 4
8 8 9 9 10 9 7 6 6 8 9 9 9 10 12 15 17 17 17 18 18 18 20 21 21 21 22 24 27 27 26 26 25 26 26 25 25 24 24 23 23 22 22 22 22 21 20 19 19 18 18 19 19 18 17 16 14 14 13 13 11 10 10 10 9 8 8 7 4 4 4 4 4 3 3 3 4 4 4 4 4 4 3 3 4
6 8 9 7 7 6 4 5 7 8 7 8 10 10 11 12 14 14 14 15 16 16 17 19 21 21 22 22 25 27 25 25 25 25 26 26 26 25 24 24 24 23 23 23 23 23 22 21 20 20 20 19 19 19 19 18 17 16 15 15 13 11 10 9 8 8 9 8 5 5 5 4 4 4 3 3 3 3 4 4 3 3 3 3 4
7 8 7 5 4 4 4 6 8 8 8 9 10 11 12 12 13 13 13 13 13 14 16 18 19 21 22 20 20 24 25 25 25 26 26 26 25 25 24 23 23 23 23 23 24 24 23 23 22 21 21 20 19 20 20 19 19 18 17 16 15 14 11 9 8 8 10 9 7 6 5 5 5 4 4 3 3 3 3 3 3 3 3 3 3
7 7 5 3 2 4 5 6 8 9 10 10 10 11 11 11 11 12 11 12 12 13 15 16 17 19 19 18 17 19 22 24 24 26 27 26 24 24 24 24 23 23 23 24 24 24 24 24 23 22 22 21 21 20 20 19 19 19 18 17 16 14 12 10 10 10 10 11 10 7 5 5 5 5 4 3 3 2 2 3 3 3 3 3 3
9 8 6 5 5 6 6 6 8 8 9 9 10 10 10 9 9 9 9 10 11 12 13 14 15 16 16 15 15 17 19 22 23 26 26 24 24 24 24 24 23 23 23 24 24 25 25 25 24 24 23 22 21 21 21 20 20 20 19 18 16 15 13 12 12 11 12 13 13 9 6 5 5 5 4 4 3 2 2 2 3 3 4 3 3
11 9 8 7 6 7 7 8 8 8 8 8 8 9 9 8 7 7 8 9 10 11 11 12 13 14 14 14 14 16 17 19 22 25 25 23 23 23 23 23 22 22 23 23 24 25 26 26 26 25 24 23 22 21 22 22 22 21 20 19 17 16 15 14 14 13 13 13 14 13 8 6 6 6 5 4 4 3 2 2 3 3 3 4 4
11 10 8 6 7 8 7 8 9 8 8 7 7 7 7 7 6 6 6 7 9 9 10 11 11 12 13 13 13 14 15 17 20 22 23 21 22 22 22 23 22 22 23 23 23 24 25 26 27 26 25 25 23 22 22 23 24 23 22 20 18 17 16 16 16 16 14 14 15 15 11 7 6 6 5 5 4 4 3 2 2 3 3 4 4
9 8 7 5 6 7 7 8 8 8 7 6 6 6 5 5 5 5 5 6 7 9 9 10 10 11 11 12 12 13 14 15 18 20 21 20 20 20 21 22 22 22 22 21 22 23 25 26 27 27 26 26 25 24 23 23 24 24 24 22 20 18 17 16 16 16 16 16 16 16 14 9 7 7 6 5 5 5 3 3 3 3 4 4 4
9 8 8 6 6 6 7 7 7 7 6 6 6 5 6 6 5 5 5 6 7 7 8 9 9 10 10 11 12 13 13 15 16 19 19 19 20 20 20 22 22 22 23 22 21 23 25 26 27 27 27 26 26 26 24 23 24 24 24 24 22 20 17 16 16 15 15 16 16 16 17 13 9 8 7 6 6 5 5 4 3 3 4 4 4
9 9 9 8 7 5 5 6 5 5 6 6 6 6 6 6 6 5 5 5 6 7 7 8 8 9 10 11 12 12 13 14 15 16 17 18 20 20 20 22 23 22 23 22 21 22 24 26 27 27 27 27 27 27 26 24 24 24 24 24 24 22 20 18 17 16 15 17 16 16 18 16 12 9 8 8 7 7 6 5 4 4 4 5 4
8 9 10 10 9 7 6 6 5 4 5 6 7 7 7 6 6 6 6 6 7 7 7 8 9 9 9 11 12 12 13 13 14 15 16 17 18 18 18 21 23 23 23 22 22 22 24 25 26 27 27 27 27 28 27 25 24 24 24 24 24 24 23 21 20 19 17 18 17 17 18 19 15 11 10 9 8 8 8 7 6 5 5 5 5
11 11 10 10 10 9 8 7 6 5 5 6 7 8 8 7 6 6 6 6 7 6 7 9 8 7 9 12 13 12 13 12 13 13 15 16 16 18 18 19 21 24 23 22 22 23 23 24 25 26 27 27 28 28 28 26 25 25 25 25 25 25 24 23 22 20 19 19 17 17 17 19 18 14 11 10 9 9 9 9 7 6 6 6 6
14 13 12 10 10 10 9 9 8 7 6 7 7 7 7 8 6 5 4 5 6 7 8 9 7 7 10 12 13 13 13 12 13 14 15 16 17 18 19 20 21 23 24 23 23 23 23 24 24 25 26 28 28 29 28 27 26 26 26 26 26 26 26 25 23 21 20 19 17 16 17 19 20 17 14 12 11 10 10 10 9 7 7 6 6
15 14 12 11 12 11 10 10 9 8 8 8 7 7 6 6 5 4 4 5 6 8 9 9 8 8 10 12 12 12 14 14 15 16 17 17 18 19 20 21 21 23 25 25 25 24 23 24 25 26 26 27 28 29 28 27 26 26 26 26 26 26 26 25 24 21 19 19 17 16 17 18 20 20 18 15 13 12 12 12 11 9 8 7 7
15 13 12 12 12 12 11 11 10 9 9 9 9 8 7 6 4 4 5 6 7 9 10 9 9 10 10 13 13 11 13 15 15 16 18 19 20 20 20 21 22 22 23 24 25 25 24 25 26 27 27 27 27 28 28 27 26 26 25 26 26 25 26 26 26 23 19 19 19 17 18 18 19 21 21 19 16 14 13 14 13 11 9 8 8
14 13 12 12 12 11 12 11 10 9 8 9 9 9 9 7 6 6 6 6 8 9 10 10 10 10 10 12 12 11 11 12 14 14 16 19 20 20 21 21 21 21 21 21 23 25 26 26 27 29 29 28 27 28 28 28 27 26 25 25 25 25 25 26 27 25 22 21 20 19 20 19 19 19 21 22 20 17 15 15 15 13 11 10 9
14 14 13 12 11 11 11 11 10 8 7 8 8 8 9 9 9 8 8 8 9 9 9 10 10 10 9 11 12 12 12 10 12 13 14 17 19 20 20 21 20 20 21 20 21 24 26 26 27 30 31 29 29 29 29 29 28 26 25 25 25 25 25 25 26 25 23 23 22 21 21 21 20 19 19 21 22 20 18 16 16 14 13 12 11
14 13 12 11 11 11 11 11 9 8 7 8 7 7 8 8 9 10 10 9 9 9 9 10 10 10 9 11 13 13 12 10 11 12 14 15 16 17 19 21 21 21 22 20 19 21 24 26 27 29 30 30 31 31 31 30 29 27 25 26 25 25 25 24 24 23 23 24 23 22 22 22 21 20 19 20 21 22 20 18 16 15 14 13 12
13 13 12 11 11 11 11 10 9 8 8 8 8 7 7 8 9 9 10 10 10 9 10 11 11 10 10 12 14 13 12 12 12 12 13 14 14 15 16 18 18 20 21 21 20 19 21 24 25 27 28 29 31 33 33 31 29 27 26 25 25 25 25 24 23 23 23 23 23 22 23 23 23 22 21 20 21 21 21 20 18 16 15 14 14
13 13 12 12 11 11 11 10 10 9 9 8 8 8 8 8 9 9 11 11 11 11 11 11 11 11 11 13 13 13 13 15 15 15 15 13 13 14 15 16 16 18 20 20 19 18 19 21 22 25 26 27 29 31 32 31 28 26 26 25 25 25 25 25 24 23 24 23 22 22 22 23 24 24 23 22 21 21 21 20 19 17 15 14 14
14 13 13 12 12 11 11 10 10 10 10 10 10 10 9 10 10 10 11 12 13 13 12 12 12 11 11 11 12 12 14 16 16 17 16 14 12 13 16 18 19 20 20 21 20 18 20 21 22 24 24 24 24 25 26 27 27 26 26 25 25 25 26 26 25 24 24 24 23 22 21 21 22 24 25 25 24 22 21 21 21 19 17 15 15
14 14 13 13 12 12 11 10 11 11 11 11 11 11 11 12 12 12 12 12 13 14 14 13 13 12 11 11 11 12 13 15 16 17 17 16 14 14 17 19 20 22 23 23 22 21 21 22 22 23 25 24 23 23 22 21 22 24 25 25 25 25 26 26 25 25 25 25 26 24 22 20 19 20 24 27 27 26 23 22 22 22 20 18 16
14 14 14 14 13 12 11 11 11 11 11 12 12 12 13 13 13 13 13 13 13 13 14 14 14 13 12 12 13 13 13 14 16 17 18 17 16 15 17 18 20 23 24 25 25 24 25 24 23 24 26 27 24 24 23 20 21 23 24 24 25 25 25 25 25 25 25 27 27 25 23 21 19 20 22 25 28 28 27 25 23 23 22 21 19
15 15 15 14 13 12 12 12 11 12 12 12 13 13 14 14 14 15 14 14 14 13 13 13 14 14 13 13 13 13 14 15 16 17 19 18 16 15 16 16 17 21 23 24 25 25 26 25 25 24 26 28 27 26 24 22 24 25 25 25 25 25 24 24 25 25 26 28 28 27 26 24 22 22 22 23 24 26 27 25 25 24 23 22 22
15 15 15 14 13 13 13 13 13 13 14 14 14 14 14 15 15 15 15 15 15 15 14 13 13 13 13 13 13 14 15 16 17 18 19 19 17 15 15 16 16 18 20 22 23 25 26 25 24 22 23 27 30 28 25 25 25 25 27 27 27 26 25 26 25 24 24 26 27 26 26 25 23 23 22 22 22 22 24 25 25 24 23 23 22
15 15 15 14 14 14 14 14 14 15 15 15 16 15 16 16 16 16 16 16 16 16 15 15 14 14 14 13 13 14 15 15 17 18 19 19 18 15 15 16 17 17 16 17 18 21 24 25 25 23 23 25 29 29 27 28 27 26 26 28 29 28 27 28 26 25 25 26 25 23 24 24 23 23 21 22 22 22 24 24 23 23 23 23 22
15 14 15 14 15 15 15 15 15 16 17 17 17 17 17 17 17 17 17 17 17 17 16 16 15 15 14 14 14 14 14 15 15 17 18 19 18 17 16 15 16 18 18 17 16 17 20 22 24 26 26 26 27 28 28 29 29 28 27 27 29 30 30 29 28 27 26 26 26 24 24 23 22 22 22 23 23 23 23 24 24 23 23 23 22
14 15 15 15 15 15 15 16 16 17 18 18 19 19 19 19 18 18 18 18 17 17 17 17 17 16 15 15 14 14 14 15 15 16 17 19 20 19 16 14 14 16 18 20 18 17 19 21 22 26 28 28 28 29 29 29 29 30 29 28 30 31 30 29 29 29 27 26 27 28 27 25 24 24 24 24 24 23 22 22 23 24 24 24 23
15 15 15 16 16 16 16 17 17 18 19 19 20 20 20 20 20 19 19 18 18 18 17 17 17 17 16 16 15 14 14 14 14 15 16 17 19 19 16 13 12 13 14 17 17 18 19 20 21 24 28 30 31 31 30 29 31 31 30 30 30 30 29 29 29 29 29 28 28 28 27 26 24 24 23 23 23 22 21 20 21 22 24 25 24
15 15 15 15 16 17 17 18 18 19 20 20 21 21 21 21 20 20 20 19 19 19 19 19 18 17 17 17 16 15 14 14 14 14 15 15 16 17 16 13 10 10 11 14 16 16 16 17 20 24 26 28 31 33 31 30 31 32 31 30 30 29 29 29 29 29 30 31 30 27 26 25 23 23 23 24 23 23 22 22 23 22 23 23 22
15 15 15 16 16 17 18 18 19 20 21 22 22 22 22 21 21 21 21 21 21 20 20 20 19 19 18 18 17 16 15 14 14 14 14 14 15 15 16 14 11 9 9 11 13 15 15 15 17 21 24 26 28 31 32 30 30 31 31 29 29 28 28 29 29 29 31 33 32 29 28 29 27 26 25 25 25 24 24 24 25 24 22 22 23
16 16 16 16 17 18 18 19 19 20 22 22 23 23 23 22 22 22 22 22 22 21 21 20 20 19 19 18 18 17 16 15 14 14 14 14 14 13 13 13 12 10 9 9 10 11 13 14 15 16 19 22 26 28 30 30 29 29 29 29 29 28 28 28 29 30 31 31 31 30 29 28 28 27 25 25 25 25 26 26 25 25 24 24 25
16 17 18 18 18 19 20 20 20 21 22 23 23 23 23 23 23 24 23 23 23 22 22 21 20 20 20 19 19 18 17 16 15 14 14 13 13 13 12 11 11 11 10 9 9 9 10 12 13 15 16 18 21 24 27 27 27 29 30 28 29 29 28 27 28 29 30 29 29 29 29 27 26 26 24 24 25 25 26 25 23 22 22 23 24
18 19 20 19 19 20 21 21 21 21 22 23 23 24 24 25 25 25 24 24 24 23 23 22 22 21 21 20 20 18 17 16 15 14 14 13 13 13 12 11 10 11 11 11 10 9 9 10 10 12 14 16 17 20 23 25 26 28 29 28 28 30 30 29 28 29 29 29 29 29 29 27 25 24 24 25 25 24 24 24 23 22 22 24 24
21 21 22 21 20 20 21 21 21 22 22 23 23 24 24 25 25 25 25 25 24 24 24 23 23 23 22 22 21 20 18 17 16 15 14 13 13 13 13 12 11 10 10 11 10 10 10 10 10 10 11 13 15 17 19 22 24 25 25 26 26 29 31 30 29 30 30 31 32 32 31 29 27 25 26 28 27 26 25 26 27 27 27 27 27
24 23 23 22 20 19 20 21 22 22 23 23 24 24 24 24 25 25 26 26 25 24 24 24 24 24 23 23 23 21 19 18 16 15 15 14 13 13 12 12 11 10 10 10 10 10 10 10 10 10 10 11 12 14 15 17 20 22 23 24 24 24 27 29 30 29 30 31 32 33 32 31 31 29 30 31 30 30 29 29 31 32 30 28 28
28 25 23 22 20 18 19 21 22 23 24 24 24 25 25 25 25 24 25 26 26 25 25 24 24 24 23 23 23 23 21 19 18 17 16 15 14 13 13 12 11 11 10 9 10 10 9 9 9 10 10 9 10 11 12 13 15 18 20 22 22 21 22 26 29 29 29 29 31 32 32 32 32 32 32 31 30 29 27 28 30 31 30 29 30
31 27 22 20 19 18 19 21 22 24 25 25 25 25 25 25 25 24 24 25 26 26 25 24 24 23 23 23 23 23 22 21 19 18 17 16 15 15 14 13 12 11 11 10 9 10 10 9 8 8 8 8 8 9 10 11 12 14 17 19 20 21 20 21 24 25 27 28 29 31 32 33 33 32 32 31 29 28 26 27 30 29 30 30 31
30 28 23 19 19 20 22 23 24 25 25 26 26 26 25 25 24 23 23 23 25 25 25 24 23 23 22 22 23 23 23 22 21 20 18 17 16 16 16 15 14 13 12 11 10 10 10 10 9 8 8 7 7 7 8 9 10 11 13 15 18 19 20 20 22 23 25 26 27 28 28 30 31 31 31 30 30 29 28 29 30 30 30 30 31
27 29 28 26 26 26 26 26 26 26 26 27 27 26 26 25 24 23 22 22 24 24 24 23 23 22 22 22 22 22 23 23 22 21 20 18 17 17 17 16 16 15 14 13 12 11 10 10 10 10 9 8 7 7 7 7 9 10 11 12 14 16 18 19 20 22 24 26 28 29 29 29 29 29 29 29 30 31 31 32 33 33 33 33 33
Wind_Direction
283 282 278 273 270 264 258 248 242 242 244 246 247 248 248 248 250 250 250 251 251 252 253 253 253 254 254 255 255 254 254 254 254 255 256 257 255 252 248 244 240 237 235 231 225 219 216 217 221 224 226 226 225 223 224 226 228 230 234 237 239 241 247 259 280 298 305 299 286 275 265 257 251 244 239 234 231 229 229 233 238 248 259 270 286
281 283 280 273 271 269 261 252 248 244 244 245 245 245 244 245 247 249 250 250 251 251 252 253 253 253 254 255 255 255 254 253 251 251 251 253 254 254 252 248 243 239 236 234 229 224 220 218 221 224 225 226 226 224 224 226 227 229 233 238 240 241 246 255 276 302 318 316 305 291 279 267 257 249 242 236 233 230 231 236 242 251 261 269 284
280 279 275 268 264 268 269 262 259 256 250 245 244 243 243 244 246 250 251 253 254 254 253 252 252 252 254 254 254 255 255 254 252 250 248 247 249 251 251 249 246 242 238 235 232 229 226 221 221 225 227 228 228 227 225 226 227 229 232 237 240 243 247 254 270 306 332 333 323 304 288 277 267 257 248 240 237 234 233 236 242 250 257 269 284
281 274 269 266 264 269 271 266 266 263 253 244 242 241 243 245 246 250 252 255 257 257 256 254 254 253 254 254 255 255 255 255 254 252 250 247 245 246 248 249 246 243 239 236 233 230 228 225 222 224 227 231 231 230 228 227 228 229 231 235 239 242 245 252 267 305 339 344 335 316 298 284 273 265 256 248 243 239 237 238 241 247 254 264 277
278 273 269 267 266 269 272 270 266 264 258 248 243 241 243 246 248 250 251 252 253 254 254 255 255 255 254 253 253 254 255 255 255 254 252 249 246 243 244 246 246 243 240 238 235 229 227 226 223 222 224 229 230 231 231 228 229 230 231 234 238 241 245 252 263 294 336 347 343 329 312 292 278 272 265 258 252 247 243 243 245 250 255 260 267
273 273 272 270 274 270 273 278 262 259 261 251 245 244 244 246 248 249 249 249 250 250 250 250 252 254 255 254 253 253 253 253 254 254 253 251 248 245 242 242 243 243 241 240 238 233 229 226 224 222 222 226 229 230 230 229 229 231 232 233 237 240 244 250 257 278 316 342 346 340 328 305 285 278 273 268 261 256 250 248 249 252 254 257 259
271 273 274 272 282 271 273 286 258 251 255 248 245 244 245 245 245 246 247 248 248 248 248 249 249 251 253 255 255 254 253 252 251 252 252 251 249 247 244 241 241 242 243 242 240 236 231 227 224 223 224 226 229 230 230 229 229 230 232 233 236 239 242 248 254 269 297 327 346 350 347 325 302 288 280 274 266 261 255 250 248 249 249 251 253
266 269 276 270 272 271 277 288 259 251 247 242 241 240 242 242 243 245 248 250 251 251 251 252 252 252 253 254 256 256 255 253 251 250 250 250 249 247 245 243 241 241 241 241 240 239 234 231 227 224 225 225 227 229 230 229 229 230 232 235 237 239 242 247 252 263 282 305 337 355 357 337 314 296 285 277 269 263 257 251 248 245 243 245 249
263 261 276 272 267 272 272 267 259 251 243 241 241 240 240 242 245 248 251 255 257 259 258 257 257 257 256 257 258 260 260 258 255 252 251 251 250 249 247 245 243 241 240 240 240 241 238 234 230 226 224 223 223 225 227 227 227 229 231 234 237 239 242 247 250 257 272 288 317 352 357 337 320 302 287 279 271 264 256 250 249 245 237 237 243
268 275 289 286 280 284 274 260 252 245 245 249 250 246 242 243 247 250 253 256 259 262 262 262 261 261 260 261 261 262 263 263 261 258 255 253 253 252 250 249 247 244 242 241 240 241 239 235 233 229 225 223 222 222 224 225 224 225 227 231 236 240 241 244 245 249 263 275 292 334 352 337 325 308 289 280 272 264 254 247 247 245 238 232 235
281 309 313 301 292 285 275 260 247 244 249 257 263 257 246 244 249 253 255 257 260 262 264 264 263 264 264 263 262 261 261 262 263 262 260 258 257 255 253 252 250 248 246 244 242 241 239 237 234 231 228 225 223 221 222 224 224 224 225 228 234 240 240 241 242 245 254 262 280 310 332 332 328 313 293 284 275 268 260 249 245 244 238 234 234
305 330 323 309 293 280 272 268 259 258 259 268 278 275 260 253 254 257 261 262 263 266 268 266 265 268 272 270 264 260 260 259 261 263 263 262 259 257 254 252 251 250 248 247 244 242 240 239 236 233 231 228 225 222 221 221 224 226 226 227 231 239 242 242 243 248 251 252 274 291 300 317 320 311 295 285 276 274 270 258 247 242 233 234 238
322 323 313 293 279 276 277 283 280 281 281 283 284 282 280 271 264 263 265 266 266 268 269 269 269 270 276 277 266 258 259 260 260 262 263 262 262 259 257 254 251 250 249 248 247 245 243 241 239 236 234 231 229 227 225 223 226 229 229 228 229 236 241 243 244 248 248 247 263 275 278 298 307 306 294 282 277 272 273 264 250 241 230 229 236
320 308 303 273 263 274 276 287 288 293 290 284 281 277 278 274 268 268 271 270 270 271 271 271 270 270 272 277 271 258 257 260 260 260 259 260 263 263 262 259 256 253 252 251 250 249 247 245 243 240 238 235 232 230 229 226 226 227 228 226 226 230 236 241 243 247 249 248 254 263 269 284 297 303 298 282 273 269 270 267 253 245 237 233 232
323 319 321 294 303 299 281 289 291 295 291 285 283 277 275 273 269 271 277 277 276 276 274 272 270 272 273 276 277 265 258 259 260 260 259 260 263 265 265 264 261 258 255 254 253 252 251 250 247 244 242 239 235 232 231 228 224 222 222 222 221 223 227 233 238 244 248 246 249 256 263 274 285 293 296 287 272 264 266 265 258 253 250 246 244
329 337 345 335 330 314 300 298 293 291 288 285 281 277 276 274 272 273 276 276 275 274 273 273 271 275 279 279 277 270 263 262 262 262 261 262 263 265 266 266 265 261 258 257 255 253 253 253 252 249 246 243 239 236 233 230 224 221 221 222 221 220 223 228 234 241 247 245 245 251 256 263 271 276 285 285 273 263 260 266 263 257 258 258 254
337 346 351 340 326 317 311 305 297 292 287 283 279 277 279 280 283 279 274 272 270 272 272 274 274 277 282 283 279 273 268 266 263 261 261 262 264 265 265 265 264 260 258 257 255 252 251 251 252 251 249 246 243 238 234 231 227 223 224 225 225 225 226 231 234 238 245 245 242 244 249 252 255 261 269 275 273 263 258 265 266 259 260 261 257
337 342 344 333 317 313 307 301 296 295 291 286 284 284 285 291 295 290 280 274 272 275 274 273 276 276 279 281 279 276 272 268 262 258 258 260 264 266 264 261 259 257 255 255 254 251 249 248 249 249 249 247 245 241 236 233 231 228 227 228 229 230 231 235 237 238 241 245 240 237 241 246 246 251 258 265 269 263 254 254 257 259 261 263 261
332 329 324 317 304 304 300 296 295 297 298 295 295 296 301 307 309 305 291 282 279 278 277 276 278 279 279 279 278 277 276 271 264 259 257 260 264 266 263 260 256 254 252 251 251 249 246 246 247 247 248 247 246 243 239 236 233 232 231 230 230 230 232 235 238 239 240 244 241 236 235 240 242 245 251 259 265 263 254 244 244 250 257 264 267
322 319 311 309 294 293 295 296 301 303 308 311 312 320 329 331 327 324 304 291 285 282 283 284 285 284 282 281 280 279 276 272 266 262 261 262 263 263 261 258 255 253 250 249 248 246 245 245 246 246 247 247 246 245 242 238 235 234 233 231 230 230 232 234 235 237 239 242 243 238 233 234 240 242 246 252 260 263 255 244 239 244 253 262 271
311 311 307 309 303 301 302 303 315 313 317 322 324 332 338 339 337 331 313 299 292 291 294 295 294 291 289 287 283 278 275 272 270 269 267 266 264 263 260 256 254 253 251 250 248 246 244 244 246 246 246 246 246 245 243 240 237 235 233 231 231 231 233 236 237 237 240 243 244 242 234 232 239 244 244 245 250 255 253 243 231 234 245 257 269
310 312 309 313 316 323 325 321 331 326 324 327 329 335 338 337 336 329 317 310 305 307 311 310 305 302 298 289 285 282 277 275 274 273 272 269 265 263 263 259 254 253 253 252 250 247 244 243 246 247 247 246 245 246 244 241 239 237 235 233 232 232 233 235 237 237 240 243 244 244 237 231 236 245 244 242 243 247 250 246 234 228 235 246 259
320 318 313 318 321 328 336 335 344 348 338 334 335 335 332 330 332 327 318 319 325 333 336 330 317 312 309 299 295 290 283 279 276 272 270 268 265 264 265 263 256 255 255 254 252 251 246 242 245 248 248 246 244 244 244 242 239 238 237 235 233 232 232 232 234 236 238 242 242 243 240 234 234 241 246 243 241 243 246 246 240 233 233 240 248
320 317 315 320 323 330 340 342 347 349 344 338 339 336 327 327 333 330 325 340 344 350 350 344 332 325 323 313 307 296 287 283 277 272 267 263 261 261 262 260 257 255 255 254 252 251 249 244 243 246 247 245 244 243 243 242 239 237 237 235 234 233 232 232 233 235 238 240 242 244 243 238 235 238 246 247 243 242 244 246 242 237 234 238 244
313 312 315 322 324 331 340 344 345 344 342 339 342 338 328 329 336 336 346 359 351 353 354 352 348 339 334 321 312 301 292 285 279 274 268 264 260 258 257 256 257 256 255 254 252 250 249 245 241 241 244 245 245 243 241 240 238 236 235 235 235 234 233 233 233 235 239 241 240 242 243 241 238 238 243 248 248 245 244 247 245 239 235 236 240
304 307 315 320 321 328 337 341 341 340 340 339 345 344 334 332 338 343 352 358 350 354 355 352 351 345 342 330 320 311 299 287 282 278 272 268 263 259 256 255 257 257 257 255 253 250 248 246 242 239 239 241 244 244 242 240 238 236 235 236 236 235 234 233 233 234 238 241 240 239 242 242 242 240 242 247 250 251 248 248 247 242 237 235 238
305 309 313 316 317 324 332 336 335 333 337 339 343 343 333 329 336 340 346 354 350 353 355 353 352 348 348 336 325 324 316 295 287 286 280 276 268 262 259 257 258 257 256 255 253 250 248 246 243 240 236 235 237 239 240 240 239 238 237 238 239 237 237 237 237 237 237 242 242 240 242 244 246 246 245 247 249 253 253 251 248 244 239 236 236
311 313 310 311 314 320 326 329 327 323 331 337 339 337 327 326 330 332 337 347 346 348 351 351 351 350 347 335 329 332 332 317 302 293 287 283 275 267 262 259 257 254 252 252 252 251 250 247 242 240 236 233 233 233 235 238 238 238 238 238 239 239 239 239 240 241 239 241 243 242 243 246 250 252 251 251 250 251 254 254 251 245 241 239 238
314 313 309 309 311 315 319 320 320 317 324 329 328 325 320 321 323 324 329 334 336 340 343 343 346 348 341 332 334 338 337 331 318 301 291 289 281 272 268 265 258 252 250 251 254 254 251 244 236 236 234 231 233 233 232 234 235 234 235 236 235 236 237 237 240 242 242 242 243 243 244 247 251 255 256 256 254 251 252 255 254 248 243 240 240
310 309 307 306 305 306 309 314 317 314 313 316 316 314 314 316 316 317 320 322 326 329 331 332 335 339 335 330 334 337 337 334 329 321 306 295 286 272 267 268 263 255 253 253 256 260 254 242 234 233 231 230 234 237 234 230 231 231 232 235 236 236 237 238 240 242 243 243 244 244 245 248 251 256 258 257 256 254 252 253 254 251 245 242 240
303 303 303 301 298 298 302 309 314 311 306 304 306 307 307 308 307 308 311 315 318 319 321 322 326 333 335 336 339 338 337 337 335 336 329 308 288 272 263 262 260 258 256 255 256 258 253 245 240 236 232 231 234 239 234 226 227 230 231 235 238 240 242 243 244 244 245 245 245 246 248 249 251 253 256 256 254 254 253 252 251 251 247 243 241
297 296 296 294 292 293 298 306 311 310 303 297 296 298 301 302 300 301 305 310 313 315 316 318 323 330 336 340 346 344 342 342 338 339 338 322 294 275 268 263 259 257 254 252 250 248 245 244 244 238 230 228 229 233 228 218 222 231 233 236 239 242 245 246 246 246 248 250 248 246 248 250 252 251 251 252 252 252 252 252 251 250 248 245 241
291 291 291 291 290 292 295 303 307 307 304 297 293 293 296 296 297 299 301 306 310 313 315 318 321 328 337 339 344 348 347 345 342 341 342 332 309 285 273 269 265 260 255 251 249 244 241 242 241 236 231 231 230 225 215 210 221 231 234 238 241 242 246 247 247 247 248 251 252 251 249 248 251 253 250 249 248 248 249 252 253 252 251 250 247
286 287 287 287 290 292 294 298 301 304 304 300 297 295 295 295 296 298 299 302 305 308 312 315 318 325 332 336 341 346 349 347 346 345 346 340 324 301 283 274 267 260 257 253 251 249 247 248 247 241 237 235 229 218 212 215 227 235 236 238 242 244 246 249 250 251 249 250 250 253 255 250 245 246 247 248 248 248 248 251 255 255 255 254 254
284 285 284 284 288 291 293 295 297 299 301 301 301 299 298 298 297 297 297 298 301 303 306 309 312 319 324 331 337 341 345 347 347 348 349 346 335 315 296 283 271 260 257 254 251 250 250 251 253 249 243 237 227 219 218 223 231 240 242 238 241 244 245 248 251 254 255 253 249 247 249 246 242 242 244 246 248 250 249 251 254 256 256 254 255
284 284 282 282 284 289 292 292 294 296 298 299 299 300 298 298 296 296 296 296 297 298 300 303 307 312 316 324 332 335 341 344 346 349 351 351 344 329 307 291 279 265 258 257 253 249 248 249 250 249 247 243 237 232 229 228 228 231 238 239 239 241 244 246 248 251 254 254 249 244 240 237 237 239 244 247 247 248 249 251 253 254 255 255 256
283 284 283 284 284 288 289 289 292 293 296 297 296 298 296 296 295 294 295 294 294 295 297 300 302 306 311 318 325 332 339 343 346 347 350 352 349 341 320 297 282 267 255 259 260 252 247 247 247 246 249 249 248 244 237 236 232 225 230 236 237 241 244 246 248 249 250 250 247 241 236 236 235 231 237 246 246 246 248 250 252 254 257 257 257
282 283 284 286 286 288 289 288 290 291 293 294 295 296 295 296 295 293 293 293 294 296 297 299 300 304 309 315 322 328 336 340 344 345 348 351 349 346 335 310 286 270 260 263 265 255 249 248 248 248 250 251 249 247 240 236 235 231 230 232 235 239 242 244 246 248 249 249 245 240 238 241 243 239 240 247 247 247 248 249 252 257 260 258 259
281 283 285 287 287 289 290 289 289 290 291 292 293 294 295 295 293 292 292 291 293 295 297 298 299 302 306 312 318 324 331 336 341 343 346 349 350 349 342 326 301 281 270 267 266 261 258 255 251 250 251 251 250 247 240 234 236 236 235 235 236 237 238 240 243 244 246 245 242 243 246 247 247 246 246 247 249 251 252 253 254 256 258 260 263
281 283 286 287 289 288 289 289 289 289 289 289 291 291 293 293 292 292 290 290 290 291 293 294 296 299 303 307 311 317 324 331 336 339 343 347 350 351 346 331 309 291 277 268 265 265 266 259 252 250 248 249 249 248 245 241 240 239 238 240 241 240 238 239 240 241 242 241 240 244 249 247 242 244 247 249 252 254 254 256 258 259 261 264 266
282 283 284 285 287 288 287 288 288 288 287 286 287 287 288 289 289 290 289 289 289 289 289 290 293 296 300 303 306 310 316 323 329 332 338 343 347 351 351 340 315 294 276 264 262 265 270 266 255 250 249 248 249 250 250 249 246 241 239 241 243 243 240 239 239 239 241 240 240 242 243 238 240 246 251 255 257 256 255 257 261 263 264 266 266
281 280 282 283 285 286 285 286 287 287 286 284 284 284 285 287 288 289 288 288 287 288 288 288 291 294 297 300 301 305 308 314 321 325 331 337 342 348 354 352 334 310 287 269 261 260 267 272 263 255 252 251 251 252 252 252 250 244 239 240 243 243 242 241 239 238 240 241 242 243 240 238 245 251 251 253 256 257 258 258 260 261 260 262 265
277 279 279 280 281 282 282 284 285 286 285 283 283 284 285 286 287 287 287 287 286 286 286 287 289 292 294 296 297 299 302 307 313 317 322 329 335 341 349 355 350 334 315 294 276 266 265 270 273 267 261 256 252 251 252 252 251 243 237 240 242 241 242 242 242 240 240 242 243 244 242 242 249 251 248 249 251 253 255 256 258 258 258 262 266
270 275 276 277 278 279 279 280 282 283 284 283 282 282 283 284 285 286 286 286 286 286 286 286 287 289 291 292 294 295 296 300 304 309 315 320 325 330 337 348 353 348 338 323 304 288 276 271 273 273 273 269 259 251 249 249 246 239 236 239 241 241 242 243 243 242 240 240 241 242 241 241 246 248 246 248 247 247 253 256 255 255 259 265 264
268 272 274 275 275 276 277 277 279 280 281 282 282 281 281 282 283 284 284 284 285 285 285 286 286 287 289 289 290 291 291 293 296 302 308 313 316 319 324 332 344 348 345 341 331 315 300 285 276 272 272 274 267 256 248 246 244 240 238 241 244 244 243 245 246 245 242 239 239 241 239 237 241 242 242 246 246 245 251 254 252 252 256 259 257
269 270 272 273 273 274 275 276 277 278 280 281 281 281 280 281 282 282 283 283 283 283 284 285 286 288 290 290 289 288 288 289 291 295 301 307 310 311 315 320 329 338 340 341 342 338 328 314 300 287 275 270 269 264 256 250 245 242 242 242 245 246 244 244 246 246 246 244 241 239 237 236 239 239 240 244 246 246 249 250 250 250 250 251 253
266 265 265 267 268 270 273 276 277 277 279 280 282 283 283 283 283 283 284 283 282 282 283 284 286 288 290 291 291 290 289 289 289 290 295 301 306 308 311 314 319 325 329 333 336 340 342 335 325 314 300 284 276 273 268 260 250 243 240 237 238 242 242 239 240 243 245 245 242 238 235 236 239 242 244 246 246 247 250 253 253 251 249 249 252
256 254 256 261 263 266 269 272 276 277 279 280 281 284 285 286 286 286 286 285 284 282 283 284 286 288 291 293 293 291 290 290 289 288 290 295 301 306 308 311 315 317 318 322 326 329 334 339 336 329 321 309 296 288 281 274 265 256 249 244 241 243 242 239 238 240 240 240 240 238 236 237 239 242 245 246 244 246 248 251 253 251 247 247 249
248 245 248 256 262 264 266 269 272 275 277 279 280 281 283 285 287 288 289 287 285 283 282 284 286 288 291 294 293 290 289 290 289 288 288 291 296 302 304 307 311 314 315 315 315 318 320 324 328 329 327 322 313 303 294 285 278 271 263 258 253 251 249 245 243 241 239 237 238 238 239 241 241 241 243 242 240 243 246 247 250 250 249 250 251
252 253 256 264 268 265 265 266 267 269 272 275 277 279 280 281 283 284 286 285 285 284 283 284 286 287 289 292 292 289 288 289 289 289 288 290 293 297 301 303 306 310 313 314 313 311 309 308 311 317 320 322 321 311 304 297 289 282 274 266 260 257 255 252 249 247 244 239 238 239 240 240 239 238 240 239 238 242 247 248 249 250 251 252 255
256 256 257 261 265 263 260 261 262 264 267 270 272 275 277 277 277 277 278 280 281 282 283 283 284 285 285 288 290 289 288 288 289 290 289 289 290 293 296 299 302 305 308 311 313 311 307 302 300 303 306 309 314 314 313 304 296 291 284 276 267 261 258 255 252 251 248 244 242 243 243 242 241 240 241 241 243 247 251 252 252 252 253 253 254
Height
5827 5828 5830 5829 5828 5827 5828 5828 5829 5829 5830 5830 5831 5831 5832 5833 5833 5834 5834 5834 5835 5836 5836 5836 5837 5837 5837 5837 5838 5838 5838 5839 5839 5840 5840 5841 5841 5841 5841 5842 5842 5842 5842 5842 5842 5842 5842 5842 5843 5844 5845 5846 5846 5847 5847 5848 5849 5850 5851 5851 5852 5852 5853 5853 5853 5853 5853 5853 5854 5854 5854 5854 5854 5854 5854 5854 5854 5855 5855 5855 5856 5856 5857 5857 5857
5826 5826 5827 5826 5825 5825 5826 5827 5828 5828 5828 5829 5829 5830 5830 5831 5832 5832 5833 5833 5834 5834 5835 5835 5836 5836 5836 5836 5837 5837 5837 5837 5838 5839 5839 5840 5840 5841 5841 5841 5841 5842 5842 5841 5841 5841 5841 5842 5842 5843 5844 5845 5845 5846 5846 5847 5848 5849 5850 5851 5851 5852 5852 5852 5853 5853 5853 5853 5853 5853 5854 5854 5854 5853 5853 5854 5854 5854 5855 5855 5856 5856 5856 5856 5856
5824 5825 5824 5823 5823 5825 5826 5826 5827 5827 5827 5827 5827 5828 5829 5830 5831 5831 5832 5833 5833 5834 5834 5835 5835 5835 5835 5836 5836 5836 5836 5836 5837 5837 5838 5839 5839 5840 5840 5840 5841 5841 5841 5841 5841 5841 5841 5841 5842 5842 5843 5844 5844 5845 5845 5846 5847 5848 5849 5850 5850 5851 5852 5852 5852 5852 5852 5852 5852 5853 5853 5853 5853 5853 5853 5853 5853 5854 5854 5855 5855 5856 5856 5856 5856
5822 5822 5820 5821 5822 5823 5824 5824 5824 5824 5825 5825 5826 5827 5828 5829 5830 5831 5831 5832 5832 5833 5833 5834 5834 5834 5834 5834 5835 5835 5835 5836 5836 5836 5837 5837 5838 5839 5839 5839 5840 5840 5840 5840 5840 5840 5840 5840 5841 5841 5842 5843 5844 5844 5845 5845 5846 5847 5848 5849 5850 5850 5851 5851 5851 5852 5851 5852 5852 5852 5853 5853 5853 5853 5853 5853 5853 5853 5854 5855 5855 5855 5855 5856 5856
5821 5819 5818 5819 5820 5821 5821 5821 5822 5823 5824 5825 5826 5827 5828 5829 5829 5829 5829 5830 5830 5830 5831 5831 5832 5832 5833 5833 5833 5833 5834 5835 5835 5836 5836 5836 5837 5838 5838 5838 5839 5839 5839 5839 5839 5839 5838 5839 5839 5840 5840 5841 5842 5843 5844 5844 5845 5846 5847 5848 5849 5850 5850 5850 5851 5851 5851 5851 5851 5852 5852 5852 5852 5852 5852 5853 5853 5853 5854 5854 5854 5855 5855 5855 5855
5819 5818 5819 5819 5820 5820 5820 5819 5820 5823 5825 5826 5826 5827 5827 5827 5827 5827 5827 5827 5827 5827 5828 5828 5829 5830 5831 5831 5832 5832 5832 5833 5834 5834 5835 5835 5836 5836 5837 5837 5837 5838 5838 5838 5838 5838 5838 5838 5838 5838 5839 5840 5841 5842 5843 5843 5844 5845 5846 5847 5848 5849 5849 5850 5850 5850 5851 5851 5851 5851 5852 5852 5852 5852 5852 5852 5852 5853 5853 5854 5854 5854 5854 5855 5855
5817 5818 5818 5819 5820 5819 5819 5819 5820 5822 5823 5824 5825 5825 5824 5824 5824 5824 5824 5825 5825 5826 5826 5827 5827 5828 5829 5830 5830 5831 5831 5831 5832 5832 5833 5834 5834 5835 5835 5836 5836 5837 5837 5837 5837 5837 5838 5837 5837 5837 5838 5839 5839 5840 5841 5842 5843 5844 5845 5846 5847 5848 5848 5849 5849 5850 5850 5851 5851 5851 5851 5851 5851 5851 5851 5852 5852 5852 5853 5853 5853 5854 5854 5854 5854
5816 5817 5817 5818 5818 5818 5818 5818 5819 5820 5821 5821 5821 5821 5821 5821 5822 5823 5823 5824 5824 5825 5826 5826 5826 5827 5827 5828 5828 5829 5829 5830 5830 5831 5831 5832 5833 5833 5834 5834 5835 5836 5836 5836 5836 5836 5837 5837 5837 5837 5837 5838 5838 5839 5840 5841 5842 5843 5844 5845 5846 5847 5847 5848 5849 5849 5850 5850 5850 5850 5850 5851 5851 5851 5851 5851 5851 5852 5852 5852 5852 5853 5853 5853 5853
5815 5816 5816 5816 5816 5816 5816 5817 5818 5818 5818 5818 5819 5819 5819 5820 5821 5822 5822 5823 5823 5824 5825 5825 5826 5826 5826 5827 5827 5827 5828 5828 5829 5829 5830 5830 5831 5832 5832 5833 5834 5835 5835 5835 5835 5835 5836 5836 5837 5836 5836 5837 5837 5838 5839 5840 5841 5842 5843 5844 5845 5846 5846 5847 5848 5849 5849 5850 5850 5850 5850 5850 5851 5851 5851 5851 5851 5851 5851 5852 5852 5852 5852 5853 5853
5813 5814 5813 5813 5813 5814 5815 5816 5816 5816 5817 5817 5818 5818 5819 5820 5821 5821 5821 5822 5822 5823 5824 5824 5825 5825 5826 5826 5826 5826 5827 5827 5828 5828 5829 5829 5830 5831 5831 5832 5832 5833 5834 5834 5834 5834 5834 5835 5835 5836 5836 5836 5837 5837 5838 5839 5840 5841 5842 5843 5844 5845 5846 5846 5847 5848 5849 5849 5849 5849 5850 5850 5850 5850 5850 5850 5850 5850 5850 5851 5851 5851 5852 5852 5852
5810 5811 5811 5811 5812 5813 5814 5815 5815 5816 5816 5817 5817 5817 5818 5819 5820 5820 5820 5821 5822 5822 5823 5823 5824 5824 5824 5824 5824 5824 5825 5825 5826 5827 5827 5828 5828 5829 5830 5831 5831 5832 5833 5833 5833 5833 5833 5833 5834 5835 5835 5835 5836 5837 5837 5838 5839 5840 5841 5842 5843 5844 5845 5846 5847 5848 5848 5849 5849 5849 5850 5850 5850 5850 5850 5850 5850 5850 5850 5850 5850 5851 5851 5851 5852
5808 5809 5809 5810 5811 5812 5813 5814 5815 5815 5816 5816 5816 5816 5817 5818 5819 5819 5820 5820 5821 5822 5822 5822 5823 5823 5823 5823 5822 5822 5823 5823 5824 5824 5825 5826 5827 5827 5828 5829 5829 5830 5831 5832 5832 5832 5832 5832 5833 5834 5834 5835 5835 5836 5836 5837 5839 5839 5840 5841 5842 5843 5845 5845 5846 5847 5848 5848 5849 5849 5849 5850 5849 5850 5849 5849 5849 5849 5849 5850 5850 5850 5851 5851 5851
5808 5809 5810 5810 5810 5812 5813 5814 5814 5814 5815 5815 5815 5815 5816 5817 5817 5818 5819 5819 5819 5820 5820 5820 5821 5821 5821 5820 5820 5820 5820 5821 5822 5822 5823 5824 5825 5825 5826 5827 5828 5828 5829 5829 5830 5831 5832 5832 5832 5833 5833 5834 5834 5835 5836 5836 5837 5839 5839 5840 5841 5843 5844 5845 5845 5846 5847 5848 5848 5848 5849 5849 5849 5849 5849 5849 5849 5849 5849 5849 5849 5850 5850 5851 5851
5809 5810 5810 5810 5811 5812 5812 5813 5813 5814 5814 5814 5814 5814 5815 5815 5816 5816 5817 5817 5817 5818 5818 5818 5818 5819 5819 5818 5818 5818 5818 5819 5819 5820 5820 5822 5822 5823 5824 5825 5826 5827 5827 5827 5828 5830 5831 5831 5832 5832 5832 5833 5834 5835 5835 5836 5836 5837 5838 5839 5840 5842 5843 5844 5845 5845 5847 5848 5848 5848 5848 5849 5849 5849 5849 5849 5849 5849 5849 5849 5849 5849 5849 5850 5851
5808 5808 5809 5810 5810 5811 5811 5812 5813 5813 5813 5813 5813 5813 5814 5814 5814 5815 5815 5815 5815 5815 5816 5816 5816 5817 5816 5816 5816 5816 5816 5817 5817 5817 5818 5820 5821 5821 5822 5823 5824 5825 5826 5826 5827 5828 5829 5830 5831 5831 5832 5832 5833 5834 5834 5835 5835 5836 5837 5838 5839 5841 5842 5843 5843 5844 5846 5847 5847 5847 5848 5848 5848 5849 5849 5849 5849 5848 5848 5848 5848 5849 5849 5849 5850
5807 5807 5808 5808 5809 5809 5810 5811 5812 5812 5812 5812 5812 5812 5812 5812 5812 5813 5813 5813 5813 5814 5814 5814 5814 5815 5814 5814 5814 5814 5814 5815 5816 5815 5816 5818 5819 5820 5821 5821 5822 5823 5824 5824 5825 5826 5827 5828 5829 5830 5831 5832 5832 5833 5834 5834 5835 5835 5836 5837 5838 5839 5840 5841 5842 5843 5845 5846 5846 5847 5847 5847 5848 5848 5849 5848 5848 5848 5848 5848 5848 5848 5849 5849 5849
5806 5807 5807 5807 5807 5808 5809 5810 5811 5811 5811 5811 5811 5811 5811 5811 5811 5811 5811 5812 5812 5812 5812 5812 5812 5813 5812 5812 5812 5812 5813 5814 5814 5813 5814 5816 5817 5818 5818 5819 5820 5821 5822 5822 5823 5824 5825 5826 5827 5829 5830 5831 5831 5832 5832 5833 5834 5835 5835 5836 5837 5838 5839 5840 5841 5842 5844 5845 5845 5846 5846 5846 5847 5848 5848 5848 5848 5848 5847 5848 5848 5848 5848 5849 5849
5806 5806 5807 5807 5807 5807 5808 5809 5809 5809 5810 5810 5809 5810 5810 5810 5810 5810 5810 5810 5810 5810 5811 5811 5810 5810 5810 5810 5810 5811 5811 5812 5811 5811 5812 5814 5815 5816 5817 5817 5818 5819 5820 5820 5821 5822 5823 5824 5825 5827 5828 5829 5830 5830 5831 5832 5833 5834 5834 5835 5836 5837 5838 5839 5840 5841 5843 5844 5844 5845 5845 5845 5846 5847 5847 5847 5847 5847 5847 5847 5847 5848 5848 5848 5849
5806 5807 5807 5808 5808 5807 5807 5807 5808 5808 5808 5808 5808 5808 5809 5809 5809 5810 5810 5809 5809 5809 5809 5809 5809 5809 5809 5809 5809 5809 5809 5810 5809 5809 5810 5812 5813 5814 5815 5815 5816 5817 5818 5818 5819 5820 5821 5822 5823 5824 5826 5827 5828 5829 5830 5830 5831 5832 5833 5834 5835 5836 5837 5838 5839 5840 5842 5842 5843 5844 5844 5845 5845 5846 5846 5846 5847 5847 5847 5847 5847 5847 5848 5848 5848
5807 5806 5806 5807 5808 5807 5807 5807 5807 5807 5807 5807 5807 5807 5807 5808 5808 5808 5808 5808 5808 5807 5807 5807 5807 5807 5807 5807 5807 5807 5807 5807 5807 5807 5808 5810 5810 5812 5813 5813 5814 5815 5816 5816 5817 5817 5818 5819 5820 5822 5824 5826 5827 5827 5828 5829 5830 5831 5832 5833 5834 5835 5836 5837 5838 5839 5840 5841 5842 5843 5843 5844 5844 5844 5845 5846 5846 5847 5847 5847 5847 5847 5848 5848 5848
5806 5805 5805 5806 5806 5806 5806 5806 5806 5806 5806 5805 5805 5806 5806 5807 5807 5807 5807 5807 5806 5806 5806 5806 5806 5805 5805 5805 5804 5804 5804 5805 5805 5806 5806 5808 5808 5809 5810 5811 5811 5812 5813 5814 5815 5815 5816 5817 5818 5820 5822 5824 5825 5826 5827 5827 5828 5829 5830 5832 5833 5834 5835 5836 5837 5838 5839 5840 5841 5841 5842 5842 5843 5843 5844 5844 5845 5846 5846 5846 5846 5846 5847 5848 5848
5806 5805 5804 5804 5804 5805 5805 5805 5806 5805 5805 5805 5805 5805 5805 5805 5806 5806 5806 5805 5805 5805 5805 5805 5804 5804 5803 5803 5803 5803 5803 5804 5804 5804 5805 5806 5807 5807 5808 5809 5809 5810 5811 5812 5813 5813 5814 5815 5817 5819 5821 5822 5823 5824 5825 5826 5826 5827 5829 5830 5831 5833 5834 5835 5836 5837 5838 5838 5839 5840 5840 5841 5841 5842 5843 5843 5844 5845 5846 5846 5846 5846 5847 5847 5848
5803 5804 5804 5803 5803 5803 5804 5804 5804 5805 5804 5804 5804 5804 5804 5805 5805 5805 5805 5805 5805 5805 5804 5804 5803 5803 5802 5802 5803 5803 5802 5803 5803 5803 5804 5804 5805 5805 5806 5807 5808 5808 5809 5810 5810 5811 5812 5813 5815 5817 5819 5820 5821 5822 5823 5824 5825 5826 5827 5828 5829 5831 5832 5833 5835 5836 5836 5837 5838 5838 5839 5839 5840 5841 5841 5842 5843 5844 5845 5845 5845 5845 5846 5847 5847
5800 5801 5802 5802 5802 5802 5803 5803 5803 5803 5804 5804 5804 5804 5804 5804 5805 5805 5805 5805 5805 5804 5804 5803 5802 5802 5802 5801 5802 5802 5801 5802 5801 5801 5802 5803 5803 5803 5804 5805 5806 5807 5807 5807 5808 5809 5811 5812 5813 5815 5816 5818 5819 5820 5821 5822 5823 5823 5825 5826 5827 5829 5830 5831 5833 5834 5835 5835 5836 5837 5837 5838 5838 5839 5840 5840 5841 5842 5843 5844 5845 5845 5845 5846 5846
5799 5800 5800 5800 5800 5801 5801 5802 5802 5802 5803 5803 5803 5804 5804 5804 5805 5805 5805 5805 5804 5804 5803 5803 5802 5802 5802 5801 5801 5800 5799 5799 5799 5799 5800 5800 5801 5802 5803 5804 5804 5805 5805 5805 5806 5807 5809 5810 5811 5812 5814 5816 5817 5818 5819 5820 5821 5822 5823 5824 5825 5827 5828 5829 5830 5832 5833 5833 5834 5835 5835 5836 5837 5837 5838 5839 5840 5841 5842 5843 5844 5844 5845 5845 5845
5799 5799 5799 5799 5800 5800 5801 5801 5801 5802 5802 5802 5803 5803 5803 5803 5804 5805 5805 5804 5804 5804 5803 5803 5802 5802 5801 5800 5800 5799 5797 5796 5796 5797 5798 5798 5799 5800 5801 5802 5802 5803 5803 5803 5804 5805 5807 5808 5809 5810 5811 5813 5815 5816 5818 5818 5819 5820 5821 5822 5823 5825 5826 5827 5828 5830 5832 5832 5833 5833 5834 5834 5835 5836 5837 5838 5839 5840 5841 5842 5843 5844 5844 5844 5844
5799 5799 5799 5799 5800 5800 5800 5801 5801 5801 5802 5802 5802 5802 5802 5803 5803 5804 5804 5803 5803 5803 5803 5802 5802 5801 5801 5799 5799 5798 5796 5795 5795 5796 5796 5797 5797 5798 5799 5799 5800 5800 5800 5801 5802 5803 5804 5805 5806 5807 5808 5810 5812 5814 5815 5816 5818 5819 5820 5820 5821 5823 5824 5825 5826 5828 5830 5830 5831 5832 5832 5833 5834 5835 5836 5837 5838 5839 5840 5841 5842 5843 5843 5843 5844
5798 5798 5799 5799 5800 5800 5801 5801 5801 5801 5802 5802 5802 5802 5802 5802 5802 5802 5803 5803 5802 5802 5802 5802 5802 5801 5800 5799 5798 5798 5796 5794 5794 5795 5795 5795 5796 5796 5797 5797 5797 5798 5798 5799 5799 5800 5801 5802 5804 5804 5806 5807 5809 5811 5812 5814 5815 5817 5818 5819 5820 5821 5822 5823 5824 5826 5827 5828 5829 5830 5831 5832 5833 5834 5835 5836 5837 5838 5839 5840 5841 5842 5842 5842 5843
5798 5798 5799 5800 5800 5800 5801 5801 5801 5801 5801 5802 5802 5802 5802 5802 5802 5802 5802 5802 5802 5801 5801 5801 5801 5801 5800 5799 5798 5797 5795 5794 5794 5794 5794 5794 5794 5794 5794 5794 5794 5794 5795 5796 5797 5797 5798 5799 5800 5801 5802 5804 5806 5807 5809 5810 5812 5814 5815 5816 5818 5819 5820 5821 5822 5823 5825 5826 5827 5829 5830 5831 5832 5833 5834 5835 5836 5837 5838 5839 5840 5840 5841 5841 5842
5799 5799 5799 5800 5800 5800 5800 5800 5800 5800 5801 5801 5802 5802 5803 5802 5802 5802 5802 5802 5802 5801 5801 5801 5801 5801 5800 5799 5798 5796 5795 5793 5793 5793 5792 5792 5791 5791 5792 5792 5791 5791 5793 5794 5795 5795 5795 5795 5797 5798 5799 5801 5803 5805 5806 5808 5809 5811 5813 5814 5815 5817 5818 5819 5820 5821 5822 5824 5826 5827 5828 5829 5830 5831 5832 5833 5834 5835 5836 5837 5838 5839 5839 5840 5840
5799 5799 5799 5800 5800 5800 5800 5800 5800 5800 5800 5801 5801 5802 5802 5802 5802 5802 5802 5801 5801 5801 5801 5800 5800 5801 5799 5798 5798 5796 5794 5793 5791 5791 5790 5790 5790 5789 5789 5789 5788 5789 5791 5792 5793 5793 5793 5794 5795 5796 5797 5798 5800 5802 5803 5805 5807 5809 5811 5812 5814 5815 5816 5817 5818 5819 5820 5821 5823 5824 5825 5827 5828 5829 5830 5831 5832 5833 5834 5835 5836 5837 5837 5838 5838
5799 5799 5799 5799 5799 5800 5800 5800 5800 5800 5800 5800 5801 5801 5801 5801 5801 5801 5801 5801 5800 5800 5800 5799 5799 5799 5798 5797 5797 5795 5794 5792 5790 5790 5789 5788 5788 5787 5787 5786 5786 5788 5789 5790 5791 5792 5792 5793 5794 5794 5795 5797 5798 5800 5801 5803 5806 5807 5809 5810 5812 5813 5814 5815 5816 5817 5818 5819 5820 5821 5822 5824 5825 5826 5828 5829 5830 5831 5832 5833 5834 5835 5835 5836 5836
5799 5799 5799 5799 5799 5799 5799 5799 5799 5799 5799 5799 5800 5800 5800 5800 5800 5800 5800 5800 5799 5798 5798 5798 5798 5798 5797 5796 5795 5794 5793 5792 5790 5789 5788 5786 5785 5785 5785 5784 5785 5786 5786 5787 5788 5790 5791 5791 5792 5792 5794 5796 5797 5798 5799 5800 5803 5805 5806 5808 5810 5811 5812 5813 5814 5815 5816 5817 5817 5819 5820 5822 5823 5824 5825 5826 5827 5828 5830 5831 5832 5833 5834 5834 5835
5799 5799 5799 5798 5798 5798 5798 5799 5799 5799 5799 5799 5799 5799 5799 5799 5799 5799 5799 5798 5798 5798 5797 5797 5796 5796 5795 5794 5794 5793 5792 5791 5790 5789 5787 5785 5783 5783 5783 5783 5783 5783 5784 5785 5787 5788 5789 5790 5790 5791 5792 5795 5796 5796 5796 5796 5800 5802 5803 5805 5807 5808 5810 5811 5812 5813 5814 5814 5815 5818 5820 5820 5820 5820 5821 5822 5824 5825 5827 5828 5830 5831 5832 5833 5833
5798 5798 5798 5798 5798 5797 5797 5798 5798 5798 5798 5798 5798 5798 5798 5798 5798 5798 5798 5797 5797 5797 5796 5796 5795 5794 5794 5794 5793 5792 5791 5790 5789 5788 5786 5784 5783 5781 5781 5781 5781 5781 5782 5783 5785 5786 5787 5787 5788 5789 5790 5792 5793 5793 5792 5792 5795 5799 5800 5801 5803 5805 5807 5809 5810 5811 5812 5812 5811 5814 5817 5818 5817 5816 5817 5819 5821 5823 5825 5826 5828 5829 5830 5831 5832
5796 5796 5796 5796 5796 5796 5797 5796 5797 5797 5797 5797 5797 5797 5797 5797 5797 5797 5797 5797 5796 5795 5795 5795 5794 5794 5793 5793 5792 5791 5790 5788 5787 5786 5786 5784 5782 5781 5780 5779 5779 5780 5780 5781 5782 5783 5785 5785 5785 5786 5787 5788 5789 5790 5789 5789 5790 5794 5796 5797 5799 5802 5804 5806 5807 5809 5810 5809 5809 5811 5813 5814 5814 5813 5815 5817 5818 5820 5823 5824 5826 5827 5828 5829 5829
5795 5795 5795 5795 5795 5795 5795 5795 5795 5796 5796 5796 5796 5796 5795 5795 5795 5796 5796 5796 5795 5795 5794 5794 5793 5793 5792 5792 5791 5790 5789 5787 5786 5785 5784 5783 5782 5780 5779 5778 5778 5778 5778 5779 5779 5780 5781 5782 5783 5784 5784 5785 5786 5787 5787 5787 5788 5789 5791 5792 5795 5798 5800 5802 5805 5806 5807 5807 5807 5809 5810 5811 5811 5811 5813 5814 5815 5817 5820 5822 5823 5824 5826 5826 5827
5793 5793 5793 5793 5793 5793 5794 5794 5794 5794 5794 5794 5794 5794 5794 5794 5794 5794 5794 5794 5794 5793 5793 5793 5792 5791 5791 5790 5790 5789 5788 5787 5785 5784 5782 5781 5780 5779 5778 5777 5776 5776 5776 5777 5777 5777 5777 5778 5780 5781 5781 5782 5783 5785 5785 5786 5788 5788 5788 5789 5792 5795 5797 5799 5801 5803 5804 5805 5805 5806 5808 5809 5809 5810 5811 5812 5813 5815 5817 5819 5820 5822 5823 5824 5825
5791 5792 5792 5792 5792 5792 5792 5792 5793 5793 5793 5793 5793 5793 5793 5793 5793 5793 5793 5793 5793 5792 5792 5791 5790 5790 5789 5789 5788 5788 5787 5786 5785 5783 5782 5780 5779 5778 5777 5776 5775 5774 5774 5774 5774 5775 5775 5775 5777 5778 5778 5779 5780 5782 5783 5784 5786 5787 5787 5787 5788 5790 5792 5794 5796 5799 5801 5802 5803 5803 5805 5806 5807 5808 5808 5810 5811 5813 5814 5816 5817 5819 5820 5821 5823
5790 5790 5790 5790 5790 5790 5790 5791 5791 5791 5791 5791 5791 5792 5791 5791 5791 5791 5791 5791 5791 5791 5791 5790 5789 5789 5788 5787 5787 5787 5786 5785 5784 5783 5781 5780 5778 5777 5775 5775 5774 5773 5772 5772 5772 5772 5772 5773 5774 5775 5776 5777 5778 5779 5781 5782 5783 5784 5785 5785 5786 5788 5790 5791 5793 5795 5797 5798 5799 5800 5802 5803 5805 5806 5806 5808 5810 5811 5812 5814 5815 5816 5817 5819 5820
5789 5789 5789 5789 5789 5789 5789 5789 5789 5789 5790 5790 5790 5790 5790 5790 5790 5790 5790 5790 5790 5789 5789 5789 5788 5788 5787 5786 5786 5785 5785 5784 5784 5783 5782 5780 5779 5777 5775 5774 5773 5772 5772 5771 5771 5771 5771 5771 5772 5772 5773 5774 5775 5776 5778 5780 5780 5781 5782 5783 5784 5786 5788 5789 5790 5791 5793 5794 5796 5798 5799 5801 5803 5804 5805 5806 5807 5808 5809 5810 5811 5813 5815 5816 5818
5787 5787 5787 5787 5787 5787 5787 5787 5788 5788 5788 5788 5789 5789 5789 5789 5789 5789 5788 5788 5788 5788 5788 5787 5787 5786 5786 5785 5784 5784 5784 5783 5783 5782 5781 5780 5779 5777 5775 5773 5772 5771 5771 5771 5770 5770 5770 5770 5770 5770 5771 5771 5772 5773 5774 5776 5778 5779 5779 5780 5782 5784 5785 5786 5787 5788 5789 5791 5794 5796 5797 5799 5801 5802 5803 5803 5804 5804 5805 5807 5808 5810 5812 5813 5814
5786 5786 5785 5785 5785 5785 5785 5786 5786 5786 5787 5787 5787 5787 5787 5787 5787 5787 5787 5787 5786 5786 5786 5786 5786 5785 5785 5784 5784 5783 5782 5782 5782 5781 5780 5779 5778 5777 5776 5774 5772 5771 5770 5770 5769 5769 5769 5769 5769 5769 5769 5768 5769 5770 5771 5773 5775 5776 5777 5778 5779 5780 5782 5783 5784 5785 5786 5788 5791 5793 5795 5797 5798 5798 5800 5801 5801 5802 5803 5804 5805 5807 5808 5809 5809
5783 5783 5783 5783 5783 5783 5783 5784 5784 5785 5785 5786 5786 5786 5786 5786 5786 5785 5785 5785 5785 5784 5784 5784 5784 5784 5784 5783 5783 5782 5782 5781 5781 5780 5780 5779 5778 5777 5776 5774 5773 5771 5770 5769 5768 5768 5767 5767 5767 5767 5767 5767 5767 5768 5769 5770 5771 5773 5774 5775 5776 5777 5779 5780 5781 5781 5783 5786 5788 5789 5791 5794 5795 5795 5796 5797 5798 5799 5800 5801 5802 5804 5804 5805 5806
5781 5781 5781 5781 5781 5781 5781 5781 5782 5783 5783 5784 5784 5785 5785 5785 5784 5784 5784 5783 5783 5783 5782 5782 5782 5782 5782 5782 5782 5781 5781 5780 5780 5779 5779 5778 5777 5777 5775 5774 5773 5772 5770 5769 5768 5767 5766 5766 5766 5765 5765 5765 5766 5766 5767 5768 5769 5770 5771 5772 5773 5774 5776 5777 5778 5778 5780 5782 5785 5786 5787 5790 5791 5792 5793 5793 5795 5796 5797 5798 5799 5800 5802 5802 5803
5778 5778 5778 5779 5779 5779 5779 5779 5779 5780 5781 5781 5782 5782 5783 5783 5783 5782 5782 5782 5781 5781 5781 5781 5781 5780 5780 5780 5780 5780 5780 5779 5779 5778 5778 5777 5777 5776 5775 5774 5773 5772 5770 5769 5768 5767 5766 5765 5765 5764 5764 5764 5764 5765 5765 5766 5767 5767 5768 5769 5770 5771 5773 5774 5775 5776 5777 5779 5781 5783 5784 5786 5788 5789 5790 5790 5792 5794 5794 5795 5797 5798 5799 5800 5800
5775 5775 5775 5775 5776 5776 5776 5777 5777 5778 5778 5779 5779 5779 5780 5780 5780 5780 5780 5780 5780 5780 5779 5779 5779 5779 5778 5778 5778 5778 5778 5777 5777 5777 5776 5776 5776 5775 5774 5773 5772 5771 5770 5769 5768 5767 5766 5765 5764 5763 5763 5763 5763 5763 5763 5764 5764 5765 5766 5767 5768 5768 5769 5771 5772 5773 5774 5776 5778 5779 5781 5783 5785 5786 5787 5788 5789 5790 5791 5793 5794 5794 5796 5797 5797
5769 5770 5771 5772 5773 5774 5774 5774 5775 5775 5776 5776 5776 5777 5777 5777 5778 5778 5778 5778 5778 5778 5777 5777 5777 5777 5776 5776 5775 5775 5775 5775 5775 5775 5775 5774 5774 5774 5773 5773 5772 5771 5769 5768 5767 5766 5765 5765 5764 5763 5762 5762 5761 5761 5761 5762 5762 5763 5763 5764 5765 5766 5767 5768 5769 5770 5772 5773 5774 5776 5778 5779 5781 5782 5783 5785 5786 5787 5789 5790 5789 5790 5792 5792 5792
5767 5765 5767 5769 5771 5772 5772 5772 5772 5772 5772 5773 5773 5774 5774 5774 5775 5775 5776 5775 5775 5775 5775 5775 5775 5775 5775 5774 5773 5773 5773 5773 5773 5773 5773 5772 5772 5772 5771 5771 5770 5770 5769 5768 5767 5766 5765 5764 5763 5762 5761 5760 5760 5760 5760 5760 5760 5761 5761 5762 5762 5763 5764 5765 5766 5768 5769 5770 5771 5772 5774 5775 5777 5779 5780 5781 5783 5784 5785 5786 5786 5787 5788 5788 5789
5770 5768 5768 5769 5769 5769 5769 5769 5769 5769 5769 5769 5770 5771 5771 5772 5772 5773 5773 5772 5772 5772 5772 5772 5772 5773 5772 5772 5772 5771 5771 5771 5770 5771 5770 5770 5770 5769 5769 5769 5768 5768 5767 5766 5765 5765 5764 5763 5762 5762 5761 5760 5759 5759 5758 5758 5758 5759 5759 5760 5760 5761 5762 5762 5763 5765 5766 5767 5768 5769 5771 5772 5773 5775 5777 5778 5780 5781 5782 5783 5783 5784 5784 5785 5786
5767 5767 5768 5767 5764 5763 5764 5764 5764 5765 5766 5766 5767 5767 5768 5769 5769 5770 5770 5769 5769 5769 5769 5769 5770 5770 5770 5770 5770 5770 5769 5769 5769 5768 5768 5768 5768 5767 5767 5767 5766 5766 5765 5764 5764 5763 5762 5762 5761 5761 5760 5759 5759 5758 5757 5757 5757 5757 5757 5758 5758 5758 5759 5760 5761 5762 5763 5764 5765 5766 5767 5769 5770 5772 5774 5775 5777 5778 5778 5779 5779 5780 5781 5782 5782